sat.trackr.live / text

‹ back to catalog

ARKTIKA-M 2

NORAD 58584 · 2023-198A

PAYLOAD ACTIVE UNKNOWN

§ Identity

Operator
Country
CIS
Launch date
2023-12-16
Launch site
TYMSC
Launch vehicle
Mass (kg)
RCS (m²)

Purposes: earth_obs

External: N2YO · Heavens-Above · Gunter

§ Orbital elements

Epoch: 2026-05-24T08:00:11.916000Z

Period
717.87 min
Inclination
63.2201°
Eccentricity
0.6895752
Mean motion
2.00593321 rev/d
Perigee alt
1,866.0 km
Apogee alt
38,493.1 km
Semi-major
26,557.7 km
B*
0.0000e+0
RAAN
157.0242°
Arg perigee
267.5045°
Mean anomaly
18.7884°
Rev number
1,784

§ Raw data

ARKTIKA-M 21 58584U 23198A   26144.33347125  .00000154  00000+0  00000+0 0  99962 58584  63.2201 157.0242 6895752 267.5045  18.7884  2.00593321 17849

JSON: /api/v1/satellites/58584 · /tle

For live sub-satellite position, see the globe view (requires WebGL).

§ Visibility from observer

Set your observer location to see the next 7 days of passes ≥ 10°. The values pass through the URL so the page stays shareable.

No JS? Fill the form by hand. The geolocation button needs JavaScript.